Regional Weather Roundup
Issued by NWS

Home | Current Version | Previous Version | Graphics & Text | Print | Product List | Glossary On
Versions: 1 2 3 4 5 6 7 8 9 10 11 12 13 14 15 16 17 18 19 20 21 22 23 24 25 26 27 28 29 30 31 32 33 34 35 36 37 38 39 40 41 42 43 44 45 46 47 48 49 50
000
ASUS43 KFSD 222302
RWRSD

WEATHER ROUNDUP FOR SOUTH DAKOTA
NATIONAL WEATHER SERVICE SIOUX FALLS SD
500 PM CST MON DEC 22 2014

NOTE: "FAIR" INDICATES FEW OR NO CLOUDS BELOW 12,000 FEET WITH NO
SIGNIFICANT WEATHER AND/OR OBSTRUCTIONS TO VISIBILITY.


SDZ001>005-009-010-012>017-230000-
NORTHWEST AND NORTH CENTRAL SOUTH DAKOTA

CITY           SKY/WX    TMP DP  RH WIND       PRES   REMARKS
BUFFALO          N/A     28  23  81 NW37G46   29.55R WCI  11
FAITH            N/A     27  22  81 NW28      29.57R WCI  11
MOBRIDGE       SNOW      31  29  92 NW15      29.50R VSB 1/4 WCI  20
$$

SDZ012>016-024>037-041>051-057-063-072>074-230000-
SOUTHWEST AND SOUTH CENTRAL SOUTH DAKOTA

CITY           SKY/WX    TMP DP  RH WIND       PRES   REMARKS
RAPID CTY ARPT LGT SNOW  33  27  78 NW46G58   29.56R WCI  16
PIERRE         CLOUDY    32  29  88 NW23      29.49R WCI  19
CUSTER         FLURRIES  28  18  66 NW24G37   29.52R WCI  14
ELLSWORTH AFB  LGT SNOW  33  27  78 N45G62    29.55  BLWGSNOWWCI  17
PHILIP         FLURRIES  32  26  78 NW23G32   29.55R WCI  19
PINE RIDGE     LGT SNOW  38  25  59 NW14G32   29.57R
WINNER         MIX PCPN  34  30  85 NW20G28   29.49R WCI  23
$$

SDZ004>011-016>023-039-040-230000-
NORTHEAST SOUTH DAKOTA

CITY           SKY/WX    TMP DP  RH WIND       PRES   REMARKS
ABERDEEN       CLOUDY    38  35  89 NE8       29.45R
WATERTOWN      CLOUDY    36  35  96 S3        29.43R
SISSETON         N/A     36  36 100 SE14G21   29.48R
$$

SDZ017-020-022-023-036>040-048>070-230000-
SOUTHEAST SOUTH DAKOTA

CITY           SKY/WX    TMP DP  RH WIND       PRES   REMARKS
SIOUX FALLS    LGT RAIN  37  36  96 NW6       29.43R FOG
HURON          CLOUDY    33  32  96 NW3       29.45R FOG
MITCHELL       CLOUDY    35  33  92 NW6       29.45R
YANKTON        CLOUDY    37  34  87 NW13      29.45S
$$

ABBREVIATIONS USED IN REMARKS
   TC - TEMPERATURE IN CELSIUS
  WCI - WIND CHILL INDEX
   HX - HEAT INDEX
  VSB - VISIBILITY



USA.gov is the U.S. government's official web portal to all federal, state and local government web resources and services.